Regional Weather Roundup
Issued by NWS

Home | Current Version | Previous Version | Graphics & Text | Print | Product List | Glossary On
Versions: 1 2 3 4 5 6 7 8 9 10 11 12 13 14 15 16 17 18 19 20 21 22 23 24 25 26 27 28 29 30 31 32 33 34 35 36 37 38 39 40 41 42 43 44 45 46 47 48 49 50
000
ASUS45 KBOU 170410
RWRCO

WEATHER ROUNDUP FOR COLORADO
NATIONAL WEATHER SERVICE DENVER/BOULDER CO
900 PM MST SAT DEC 16 2017

NOTE: "FAIR" INDICATES FEW OR NO CLOUDS BELOW 12000 FEET WITH NO
SIGNIFICANT WEATHER AND/OR OBSTRUCTIONS TO VISIBILITY.

COZ001>005-013-030-031-170500-
...NORTHWEST COLORADO...

CITY           SKY/WX    TMP DP  RH WIND       PRES   REMARKS
CRAIG          FAIR      19  13  77 CALM      29.84R
HAYDEN         FAIR      25  16  68 CALM      29.85R
MEEKER         FAIR      25  12  58 CALM      29.83R
RABBIT EARS PA FAIR      25  -6  26 W9        29.84R WCI  15
STEAMBOAT SPGS FAIR      24  15  66 CALM      29.82R
WALDEN         FAIR      18  10  73 CALM      29.83R
$$

COZ006>008-011-170500-
...WEST CENTRAL VALLEYS...

CITY           SKY/WX    TMP DP  RH WIND       PRES   REMARKS
GRAND JUNCTION FAIR      24   6  46 CALM      29.84R
MONTROSE       FAIR      29   9  43 SE5       29.86R WCI  24
EAGLE          FAIR      22  14  71 E3        29.87R
RIFLE          FAIR      26   9  48 CALM      29.85R
DELTA          FAIR      34   6  31 CALM      29.85R
NUCLA          FAIR      32  -2  23 E7        29.86R WCI  26
$$

COZ017>023-064>068-170500-
...SOUTHWEST COLORADO...

CITY           SKY/WX    TMP DP  RH WIND       PRES   REMARKS
DURANGO        FAIR      32  10  40 N3        29.82R
CORTEZ         FAIR      30  10  43 E7        29.85R WCI  23
PAGOSA SPRINGS FAIR      27   3  35 CALM      29.85R
TELLURIDE      CLOUDY    32  -4  20 S3        29.86R
WOLF CREEK PAS MOCLDY    23   1  39 SW6       29.95R WCI  16
$$

COZ009-010-012-014-032>034-037-058>063-170500-
...CENTRAL COLORADO...

CITY           SKY/WX    TMP DP  RH WIND       PRES   REMARKS
ASPEN          FAIR      26  16  65 SW3       29.81R
BUENA VISTA    FAIR      18  11  74 W6        29.86R WCI  10
COPPER MTN     NOT AVBL
BERTHOUD PASS  FAIR      19   9  63 W8G18     29.89S WCI   9
COTTONWOOD PAS FAIR      34   5  29 CALM      29.88R
GUNNISON       FAIR      22   9  57 CALM      29.86R
KREMMLING      FAIR      19  14  79 CALM      29.85S
LEADVILLE      MOCLDY    21   6  52 NE6       29.85R WCI  13
MONARCH PASS   FAIR      19   1  45 CALM      30.00R
SALIDA         FAIR      33   5  31 CALM      29.93R
SUNLIGHT       FAIR      21  -6  30 W9        29.89S WCI  11
WILKERSON PASS CLOUDY    21   0  39 S10G16    29.91S WCI  10
$$

COZ069>075-170500-
...SAN LUIS VALLEY/SANGRE DE CRISTO MOUNTAINS...

CITY           SKY/WX    TMP DP  RH WIND       PRES   REMARKS
ALAMOSA        FAIR      18  12  77 NE5       29.81R WCI  11
DEL NORTE      FAIR      24  10  53 W7        29.82S WCI  16
LA VETA PASS   FAIR      21   9  58 N14G24      N/A  WCI   8
SAGUACHE       FAIR      23  10  58 N7        29.82R WCI  15
$$

COZ035-036-038>040-170500-
...NORTHERN COLORADO FRONT RANGE...

CITY           SKY/WX    TMP DP  RH WIND       PRES   REMARKS
DENVER INTL AP MOCLDY    30  23  75 E15       29.91R WCI  19
DMNS CITY PARK NOT AVBL
AURORA         MOCLDY    31  21  68 E10       29.91R WCI  22
FRONT RANGE AP FAIR      31  26  81 E17       29.91R WCI  20
ERIE MUNI ARPT MOCLDY    34  24  67 NE6       30.00R WCI  29
BOULDER MUN AP MOCLDY    34  25  69 NE9       29.94R WCI  26
CENTENNIAL     CLOUDY    31  24  75 SE10      29.90R WCI  22
BROOMFIELD     MOCLDY    34  25  69 E9        29.93R WCI  26
FORT COLLINS   CLOUDY    33  24  69 E8        29.96R WCI  26
LONGMONT       CLOUDY    36  25  64 NE6       29.97R
$$

COZ041-046-047-076>085-087-088-170500-
...PIKES PEAK/PALMER DIVIDE AND SOUTHERN FOOTHILLS...

CITY           SKY/WX    TMP DP  RH WIND       PRES   REMARKS
COLO. SPRINGS  MOCLDY    32  18  56 NE16      29.88R WCI  21
A. F. ACADEMY  CLOUDY    29  14  53 N7        29.87R WCI  22
SCHRIEVER AFB  MOCLDY    29  17  60 NE12      29.88R WCI  20
CHEYENNE MTN   MOCLDY    32  13  45 NW8       29.82R WCI  25
ELLICOTT         N/A    N/A N/A N/A NE14      29.85S
FALCON         FAIR      28  18  65 NE9       29.87S WCI  19
FORT CARSON    MOCLDY    33  17  51 N9        29.87R WCI  25
LIMON          MOCLDY    27  26  96 NE16      29.89S WCI  15
MONUMENT HILL  FAIR      27  19  74 E6        29.89R WCI  20
CANON CITY     FAIR      37  16  41 SE9       29.88R
WALSENBURG     FAIR      30  12  47 NW5       29.88S WCI  25
TRINIDAD       FAIR      31  15  52 NW9       29.86R WCI  23
$$

COZ042>045-048>051-090-091-170500-
...NORTHEAST COLORADO...

CITY           SKY/WX    TMP DP  RH WIND       PRES   REMARKS
GREELEY ARPT   CLOUDY    32  26  78 E7        29.96R WCI  26
AKRON          CLOUDY    31  27  85 NE10      29.93R WCI  22
BURLINGTON     FAIR      29  25  85 N15       29.89R WCI  18
WRAY           CLOUDY    32  32 100 N12       29.94S WCI  23
YUMA           CLOUDY    32  30  93 NE12      29.94S WCI  23
STERLING       CLOUDY    34  30  86 NE10      29.95R WCI  26
HOLYOKE        CLOUDY    36  32  87 NE14G20   29.96S
FORT MORGAN    CLOUDY    33  27  80 NE13      29.95R WCI  23
$$

COZ086-089-092>099-170500-
...SOUTHEAST COLORADO...

CITY           SKY/WX    TMP DP  RH WIND       PRES   REMARKS
PUEBLO         FAIR      33  15  47 NE7       29.87R WCI  27
LA JUNTA       FAIR      35  21  56 N16G25    29.83R WCI  25
LAMAR          FAIR      34  16  47 NE13      29.78R WCI  25
SPRINGFIELD      N/A     29  17  61 W8        29.75R WCI  21
$$



USA.gov is the U.S. government's official web portal to all federal, state and local government web resources and services.